date,time,water_lv
2023-11-01,00:00:00,4.481
2023-11-01,00:10:00,4.481
2023-11-01,00:20:00,4.485
2023-11-01,00:30:00,4.483
2023-11-01,00:40:00,4.482
2023-11-01,00:50:00,4.487
2023-11-01,01:00:00,4.487
2023-11-01,01:10:00,4.486
2023-11-01,01:20:00,4.487
2023-11-01,01:30:00,4.487
2023-11-01,01:40:00,4.488
2023-11-01,01:50:00,4.488
2023-11-01,02:00:00,4.487
2023-11-01,02:10:00,4.487
2023-11-01,02:20:00,4.49
2023-11-01,02:30:00,4.49
2023-11-01,02:40:00,4.493
2023-11-01,02:50:00,4.49
2023-11-01,03:00:00,4.492
2023-11-01,03:10:00,4.488
2023-11-01,03:20:00,4.49
2023-11-01,03:30:00,4.492
2023-11-01,03:40:00,4.489
2023-11-01,03:50:00,4.488
2023-11-01,04:00:00,4.488
2023-11-01,04:10:00,4.488
2023-11-01,04:20:00,4.487
2023-11-01,04:30:00,4.486
2023-11-01,04:40:00,4.487
2023-11-01,04:50:00,4.487
2023-11-01,05:00:00,4.488
2023-11-01,05:10:00,4.487
2023-11-01,05:20:00,4.486
2023-11-01,05:30:00,4.483
2023-11-01,05:40:00,4.483
2023-11-01,05:50:00,4.485
2023-11-01,06:00:00,4.487
2023-11-01,06:10:00,4.485
2023-11-01,06:20:00,4.486
2023-11-01,06:30:00,4.483
2023-11-01,06:40:00,4.486
2023-11-01,06:50:00,4.485
2023-11-01,07:00:00,4.483
2023-11-01,07:10:00,4.48
2023-11-01,07:20:00,4.48
2023-11-01,07:30:00,4.478
2023-11-01,07:40:00,4.481
2023-11-01,07:50:00,4.479
2023-11-01,08:00:00,4.48
2023-11-01,08:10:00,4.48
2023-11-01,08:20:00,4.479
2023-11-01,08:30:00,4.478
2023-11-01,08:40:00,4.474
2023-11-01,08:50:00,4.475
2023-11-01,09:00:00,4.476
2023-11-01,09:10:00,4.475
2023-11-01,09:20:00,4.478
2023-11-01,09:30:00,4.472
2023-11-01,09:40:00,4.473
2023-11-01,09:50:00,4.468
2023-11-01,10:00:00,4.472
2023-11-01,10:10:00,4.473
2023-11-01,10:20:00,4.469
2023-11-01,10:30:00,4.475
2023-11-01,10:40:00,4.468
2023-11-01,10:50:00,4.473
2023-11-01,11:00:00,4.472
2023-11-01,11:10:00,4.472
2023-11-01,11:20:00,4.469
2023-11-01,11:30:00,4.469
2023-11-01,11:40:00,4.471
2023-11-01,11:50:00,4.475
2023-11-01,12:00:00,4.472
2023-11-01,12:10:00,4.474
2023-11-01,12:20:00,4.475
2023-11-01,12:30:00,4.475
2023-11-01,12:40:00,4.475
2023-11-01,12:50:00,4.475
2023-11-01,13:00:00,4.48
2023-11-01,13:10:00,4.481
2023-11-01,13:20:00,4.48
2023-11-01,13:30:00,4.486
2023-11-01,13:40:00,4.483
2023-11-01,13:50:00,4.49
2023-11-01,14:00:00,4.486
2023-11-01,14:10:00,4.492
2023-11-01,14:20:00,4.49
2023-11-01,14:30:00,4.492
2023-11-01,14:40:00,4.494
2023-11-01,14:50:00,4.493
2023-11-01,15:00:00,4.493
2023-11-01,15:10:00,4.5
2023-11-01,15:20:00,4.498
2023-11-01,15:30:00,4.494
2023-11-01,15:40:00,4.501
2023-11-01,15:50:00,4.5
2023-11-01,16:00:00,4.496
2023-11-01,16:10:00,4.5
2023-11-01,16:20:00,4.499
2023-11-01,16:30:00,4.505
2023-11-01,16:40:00,4.502
2023-11-01,16:50:00,4.499
2023-11-01,17:00:00,4.503
2023-11-01,17:10:00,4.508
2023-11-01,17:20:00,4.507
2023-11-01,17:30:00,4.508
2023-11-01,17:40:00,4.51
2023-11-01,17:50:00,4.507
2023-11-01,18:00:00,4.51
2023-11-01,18:10:00,4.51
2023-11-01,18:20:00,4.512
2023-11-01,18:30:00,4.514
2023-11-01,18:40:00,4.514
2023-11-01,18:50:00,4.513
2023-11-01,19:00:00,4.513
2023-11-01,19:10:00,4.513
2023-11-01,19:20:00,4.512
2023-11-01,19:30:00,4.516
2023-11-01,19:40:00,4.515
2023-11-01,19:50:00,4.514
2023-11-01,20:00:00,4.514
2023-11-01,20:10:00,4.514
2023-11-01,20:20:00,4.516
2023-11-01,20:30:00,4.516
2023-11-01,20:40:00,4.519
2023-11-01,20:50:00,4.516
2023-11-01,21:00:00,4.514
2023-11-01,21:10:00,4.515
2023-11-01,21:20:00,4.519
2023-11-01,21:30:00,4.52
2023-11-01,21:40:00,4.517
2023-11-01,21:50:00,4.52
2023-11-01,22:00:00,4.516
2023-11-01,22:10:00,4.519
2023-11-01,22:20:00,4.52
2023-11-01,22:30:00,4.52
2023-11-01,22:40:00,4.521
2023-11-01,22:50:00,4.521
2023-11-01,23:00:00,4.521
2023-11-01,23:10:00,4.52
2023-11-01,23:20:00,4.52
2023-11-01,23:30:00,4.522
2023-11-01,23:40:00,4.521
2023-11-01,23:50:00,4.522
2023-11-02,00:00:00,4.521
2023-11-02,00:10:00,4.526
2023-11-02,00:20:00,4.526
2023-11-02,00:30:00,4.524
2023-11-02,00:40:00,4.526
2023-11-02,00:50:00,4.528
2023-11-02,01:00:00,4.527
2023-11-02,01:10:00,4.527
2023-11-02,01:20:00,4.524
2023-11-02,01:30:00,4.532
2023-11-02,01:40:00,4.53
2023-11-02,01:50:00,4.534
2023-11-02,02:00:00,4.529
2023-11-02,02:10:00,4.53
2023-11-02,02:20:00,4.533
2023-11-02,02:30:00,4.532
2023-11-02,02:40:00,4.535
2023-11-02,02:50:00,4.539
2023-11-02,03:00:00,4.537
2023-11-02,03:10:00,4.535
2023-11-02,03:20:00,4.536
2023-11-02,03:30:00,4.536
2023-11-02,03:40:00,4.539
2023-11-02,03:50:00,4.539
2023-11-02,04:00:00,4.54
2023-11-02,04:10:00,4.537
2023-11-02,04:20:00,4.54
2023-11-02,04:30:00,4.54
2023-11-02,04:40:00,4.54
2023-11-02,04:50:00,4.541
2023-11-02,05:00:00,4.541
2023-11-02,05:10:00,4.544
2023-11-02,05:20:00,4.547
2023-11-02,05:30:00,4.547
2023-11-02,05:40:00,4.548
2023-11-02,05:50:00,4.548
2023-11-02,06:00:00,4.548
2023-11-02,06:10:00,4.548
2023-11-02,06:20:00,4.548
2023-11-02,06:30:00,4.553
2023-11-02,06:40:00,4.553
2023-11-02,06:50:00,4.553
2023-11-02,07:00:00,4.556
2023-11-02,07:10:00,4.554
2023-11-02,07:20:00,4.556
2023-11-02,07:30:00,4.556
2023-11-02,07:40:00,4.555
2023-11-02,07:50:00,4.558
2023-11-02,08:00:00,4.554
2023-11-02,08:10:00,4.557
2023-11-02,08:20:00,4.554
2023-11-02,08:30:00,4.553
2023-11-02,08:40:00,4.555
2023-11-02,08:50:00,4.55
2023-11-02,09:00:00,4.556
2023-11-02,09:10:00,4.555
2023-11-02,09:20:00,4.556
2023-11-02,09:30:00,4.554
2023-11-02,09:40:00,4.557
2023-11-02,09:50:00,4.558
2023-11-02,10:00:00,4.557
2023-11-02,10:10:00,4.562
2023-11-02,10:20:00,4.56
2023-11-02,10:30:00,4.561
2023-11-02,10:40:00,4.561
2023-11-02,10:50:00,4.563
2023-11-02,11:00:00,4.561
2023-11-02,11:10:00,4.565
2023-11-02,11:20:00,4.567
2023-11-02,11:30:00,4.57
2023-11-02,11:40:00,4.57
2023-11-02,11:50:00,4.57
2023-11-02,12:00:00,4.57
2023-11-02,12:10:00,4.573
2023-11-02,12:20:00,4.571
2023-11-02,12:30:00,4.576
2023-11-02,12:40:00,4.577
2023-11-02,12:50:00,4.584
2023-11-02,13:00:00,4.584
2023-11-02,13:10:00,4.584
2023-11-02,13:20:00,4.588
2023-11-02,13:30:00,4.59
2023-11-02,13:40:00,4.594
2023-11-02,13:50:00,4.596
2023-11-02,14:00:00,4.598
2023-11-02,14:10:00,4.601
2023-11-02,14:20:00,4.604
2023-11-02,14:30:00,4.608
2023-11-02,14:40:00,4.614
2023-11-02,14:50:00,4.616
2023-11-02,15:00:00,4.619
2023-11-02,15:10:00,4.624
2023-11-02,15:20:00,4.628
2023-11-02,15:30:00,4.632
2023-11-02,15:40:00,4.633
2023-11-02,15:50:00,4.636
2023-11-02,16:00:00,4.638
2023-11-02,16:10:00,4.64
2023-11-02,16:20:00,4.646
2023-11-02,16:30:00,4.65
2023-11-02,16:40:00,4.648
2023-11-02,16:50:00,4.657
2023-11-02,17:00:00,4.656
2023-11-02,17:10:00,4.657
2023-11-02,17:20:00,4.659
2023-11-02,17:30:00,4.663
2023-11-02,17:40:00,4.666
2023-11-02,17:50:00,4.667
2023-11-02,18:00:00,4.671
2023-11-02,18:10:00,4.672
2023-11-02,18:20:00,4.677
2023-11-02,18:30:00,4.678
2023-11-02,18:40:00,4.682
2023-11-02,18:50:00,4.682
2023-11-02,19:00:00,4.686
2023-11-02,19:10:00,4.689
2023-11-02,19:20:00,4.691
2023-11-02,19:30:00,4.696
2023-11-02,19:40:00,4.698
2023-11-02,19:50:00,4.7
2023-11-02,20:00:00,4.705
2023-11-02,20:10:00,4.705
2023-11-02,20:20:00,4.707
2023-11-02,20:30:00,4.71
2023-11-02,20:40:00,4.712
2023-11-02,20:50:00,4.714
2023-11-02,21:00:00,4.715
2023-11-02,21:10:00,4.718
2023-11-02,21:20:00,4.721
2023-11-02,21:30:00,4.727
2023-11-02,21:40:00,4.726
2023-11-02,21:50:00,4.728
2023-11-02,22:00:00,4.732
2023-11-02,22:10:00,4.734
2023-11-02,22:20:00,4.738
2023-11-02,22:30:00,4.738
2023-11-02,22:40:00,4.742
2023-11-02,22:50:00,4.745
2023-11-02,23:00:00,4.747
2023-11-02,23:10:00,4.751
2023-11-02,23:20:00,4.752
2023-11-02,23:30:00,4.752
2023-11-02,23:40:00,4.757
2023-11-02,23:50:00,4.759
2023-11-03,00:00:00,4.764
2023-11-03,00:10:00,4.765
2023-11-03,00:20:00,4.767
2023-11-03,00:30:00,4.772
2023-11-03,00:40:00,4.771
2023-11-03,00:50:00,4.778
2023-11-03,01:00:00,4.779
2023-11-03,01:10:00,4.781
2023-11-03,01:20:00,4.782
2023-11-03,01:30:00,4.785
2023-11-03,01:40:00,4.786
2023-11-03,01:50:00,4.792
2023-11-03,02:00:00,4.792
2023-11-03,02:10:00,4.796
2023-11-03,02:20:00,4.796
2023-11-03,02:30:00,4.8
2023-11-03,02:40:00,4.803
2023-11-03,02:50:00,4.805
2023-11-03,03:00:00,4.802
2023-11-03,03:10:00,4.808
2023-11-03,03:20:00,4.81
2023-11-03,03:30:00,4.815
2023-11-03,03:40:00,4.815
2023-11-03,03:50:00,4.82
2023-11-03,04:00:00,4.817
2023-11-03,04:10:00,4.819
2023-11-03,04:20:00,4.821
2023-11-03,04:30:00,4.824
2023-11-03,04:40:00,4.826
2023-11-03,04:50:00,4.83
2023-11-03,05:00:00,4.834
2023-11-03,05:10:00,4.835
2023-11-03,05:20:00,4.836
2023-11-03,05:30:00,4.836
2023-11-03,05:40:00,4.84
2023-11-03,05:50:00,4.843
2023-11-03,06:00:00,4.843
2023-11-03,06:10:00,4.847
2023-11-03,06:20:00,4.848
2023-11-03,06:30:00,4.853
2023-11-03,06:40:00,4.851
2023-11-03,06:50:00,4.853
2023-11-03,07:00:00,4.854
2023-11-03,07:10:00,4.857
2023-11-03,07:20:00,4.858
2023-11-03,07:30:00,4.86
2023-11-03,07:40:00,4.86
2023-11-03,07:50:00,4.861
2023-11-03,08:00:00,4.864
2023-11-03,08:10:00,4.862
2023-11-03,08:20:00,4.867
2023-11-03,08:30:00,4.867
2023-11-03,08:40:00,4.865
2023-11-03,08:50:00,4.87
2023-11-03,09:00:00,4.875
2023-11-03,09:10:00,4.873
2023-11-03,09:20:00,4.873
2023-11-03,09:30:00,4.875
2023-11-03,09:40:00,4.876
2023-11-03,09:50:00,4.874
2023-11-03,10:00:00,4.88
2023-11-03,10:10:00,4.881
2023-11-03,10:20:00,4.882
2023-11-03,10:30:00,4.88
2023-11-03,10:40:00,4.878
2023-11-03,10:50:00,4.883
2023-11-03,11:00:00,4.882
2023-11-03,11:10:00,4.885
2023-11-03,11:20:00,4.888
2023-11-03,11:30:00,4.89
2023-11-03,11:40:00,4.889
2023-11-03,11:50:00,4.889
2023-11-03,12:00:00,4.889
2023-11-03,12:10:00,4.891
2023-11-03,12:20:00,4.89
2023-11-03,12:30:00,4.897
2023-11-03,12:40:00,4.897
2023-11-03,12:50:00,4.895
2023-11-03,13:00:00,4.899
2023-11-03,13:10:00,4.899
2023-11-03,13:20:00,4.902
2023-11-03,13:30:00,4.905
2023-11-03,13:40:00,4.903
2023-11-03,13:50:00,4.905
2023-11-03,14:00:00,4.909
2023-11-03,14:10:00,4.909
2023-11-03,14:20:00,4.909
2023-11-03,14:30:00,4.911
2023-11-03,14:40:00,4.914
2023-11-03,14:50:00,4.914
2023-11-03,15:00:00,4.917
2023-11-03,15:10:00,4.922
2023-11-03,15:20:00,4.922
2023-11-03,15:30:00,4.925
2023-11-03,15:40:00,4.926
2023-11-03,15:50:00,4.929
2023-11-03,16:00:00,4.93
2023-11-03,16:10:00,4.929
2023-11-03,16:20:00,4.935
2023-11-03,16:30:00,4.936
2023-11-03,16:40:00,4.939
2023-11-03,16:50:00,4.94
2023-11-03,17:00:00,4.942
2023-11-03,17:10:00,4.945
2023-11-03,17:20:00,4.95
2023-11-03,17:30:00,4.948
2023-11-03,17:40:00,4.956
2023-11-03,17:50:00,4.953
2023-11-03,18:00:00,4.959
2023-11-03,18:10:00,4.957
2023-11-03,18:20:00,4.964
2023-11-03,18:30:00,4.965
2023-11-03,18:40:00,4.965
2023-11-03,18:50:00,4.969
2023-11-03,19:00:00,4.97
2023-11-03,19:10:00,4.972
2023-11-03,19:20:00,4.974
2023-11-03,19:30:00,4.977
2023-11-03,19:40:00,4.979
2023-11-03,19:50:00,4.979
2023-11-03,20:00:00,4.982
2023-11-03,20:10:00,4.985
2023-11-03,20:20:00,4.985
2023-11-03,20:30:00,4.987
2023-11-03,20:40:00,4.989
2023-11-03,20:50:00,4.99
2023-11-03,21:00:00,4.991
2023-11-03,21:10:00,4.993
2023-11-03,21:20:00,4.993
2023-11-03,21:30:00,4.996
2023-11-03,21:40:00,4.998
2023-11-03,21:50:00,5.003
2023-11-03,22:00:00,4.998
2023-11-03,22:10:00,5.003
2023-11-03,22:20:00,5.005
2023-11-03,22:30:00,5.004
2023-11-03,22:40:00,5.005
2023-11-03,22:50:00,5.006
2023-11-03,23:00:00,5.011
2023-11-03,23:10:00,5.011
2023-11-03,23:20:00,5.012
2023-11-03,23:30:00,5.012
2023-11-03,23:40:00,5.012
2023-11-03,23:50:00,5.013
2023-11-04,00:00:00,5.017
2023-11-04,00:10:00,5.017
2023-11-04,00:20:00,5.015
2023-11-04,00:30:00,5.019
2023-11-04,00:40:00,-
2023-11-04,00:50:00,5.02
2023-11-04,01:00:00,5.021
2023-11-04,01:10:00,5.024
2023-11-04,01:20:00,5.023
2023-11-04,01:30:00,5.026
2023-11-04,01:40:00,5.025
2023-11-04,01:50:00,5.03
2023-11-04,02:00:00,5.027
2023-11-04,02:10:00,5.031
2023-11-04,02:20:00,5.032
2023-11-04,02:30:00,5.035
2023-11-04,02:40:00,5.033
2023-11-04,02:50:00,5.035
2023-11-04,03:00:00,5.032
2023-11-04,03:10:00,5.037
2023-11-04,03:20:00,5.034
2023-11-04,03:30:00,5.034
2023-11-04,03:40:00,5.034
2023-11-04,03:50:00,5.035
2023-11-04,04:00:00,5.038
2023-11-04,04:10:00,5.033
2023-11-04,04:20:00,5.039
2023-11-04,04:30:00,5.042
2023-11-04,04:40:00,5.045
2023-11-04,04:50:00,5.044
2023-11-04,05:00:00,5.042
2023-11-04,05:10:00,5.044
2023-11-04,05:20:00,5.044
2023-11-04,05:30:00,5.042
2023-11-04,05:40:00,5.042
2023-11-04,05:50:00,5.044
2023-11-04,06:00:00,5.046
2023-11-04,06:10:00,5.045
2023-11-04,06:20:00,5.042
2023-11-04,06:30:00,5.045
2023-11-04,06:40:00,5.047
2023-11-04,06:50:00,5.046
2023-11-04,07:00:00,5.046
2023-11-04,07:10:00,5.044
2023-11-04,07:20:00,5.045
2023-11-04,07:30:00,5.045
2023-11-04,07:40:00,5.044
2023-11-04,07:50:00,5.044
2023-11-04,08:00:00,5.045
2023-11-04,08:10:00,5.042
2023-11-04,08:20:00,5.045
2023-11-04,08:30:00,5.042
2023-11-04,08:40:00,5.041
2023-11-04,08:50:00,5.04
2023-11-04,09:00:00,5.042
2023-11-04,09:10:00,5.04
2023-11-04,09:20:00,5.04
2023-11-04,09:30:00,5.041
2023-11-04,09:40:00,5.039
2023-11-04,09:50:00,5.039
2023-11-04,10:00:00,5.034
2023-11-04,10:10:00,5.035
2023-11-04,10:20:00,5.038
2023-11-04,10:30:00,5.04
2023-11-04,10:40:00,5.038
2023-11-04,10:50:00,5.039
2023-11-04,11:00:00,5.034
2023-11-04,11:10:00,5.035
2023-11-04,11:20:00,5.033
2023-11-04,11:30:00,5.035
2023-11-04,11:40:00,5.033
2023-11-04,11:50:00,5.032
2023-11-04,12:00:00,5.031
2023-11-04,12:10:00,5.028
2023-11-04,12:20:00,5.03
2023-11-04,12:30:00,5.031
2023-11-04,12:40:00,5.028
2023-11-04,12:50:00,5.032
2023-11-04,13:00:00,5.031
2023-11-04,13:10:00,5.028
2023-11-04,13:20:00,5.028
2023-11-04,13:30:00,5.024
2023-11-04,13:40:00,5.03
2023-11-04,13:50:00,5.026
2023-11-04,14:00:00,5.026
2023-11-04,14:10:00,5.03
2023-11-04,14:20:00,5.028
2023-11-04,14:30:00,5.031
2023-11-04,14:40:00,5.028
2023-11-04,14:50:00,5.031
2023-11-04,15:00:00,5.031
2023-11-04,15:10:00,5.031
2023-11-04,15:20:00,5.031
2023-11-04,15:30:00,5.034
2023-11-04,15:40:00,5.031
2023-11-04,15:50:00,5.033
2023-11-04,16:00:00,5.037
2023-11-04,16:10:00,5.034
2023-11-04,16:20:00,5.033
2023-11-04,16:30:00,5.034
2023-11-04,16:40:00,5.033
2023-11-04,16:50:00,5.037
2023-11-04,17:00:00,5.038
2023-11-04,17:10:00,5.035
2023-11-04,17:20:00,5.039
2023-11-04,17:30:00,5.04
2023-11-04,17:40:00,5.038
2023-11-04,17:50:00,5.041
2023-11-04,18:00:00,5.041
2023-11-04,18:10:00,5.04
2023-11-04,18:20:00,5.044
2023-11-04,18:30:00,5.042
2023-11-04,18:40:00,5.046
2023-11-04,18:50:00,5.039
2023-11-04,19:00:00,5.038
2023-11-04,19:10:00,5.042
2023-11-04,19:20:00,5.042
2023-11-04,19:30:00,5.045
2023-11-04,19:40:00,5.041
2023-11-04,19:50:00,5.046
2023-11-04,20:00:00,5.047
2023-11-04,20:10:00,5.044
2023-11-04,20:20:00,5.044
2023-11-04,20:30:00,5.046
2023-11-04,20:40:00,5.04
2023-11-04,20:50:00,5.045
2023-11-04,21:00:00,5.045
2023-11-04,21:10:00,5.045
2023-11-04,21:20:00,5.045
2023-11-04,21:30:00,5.046
2023-11-04,21:40:00,5.041
2023-11-04,21:50:00,5.044
2023-11-04,22:00:00,5.045
2023-11-04,22:10:00,5.048
2023-11-04,22:20:00,5.04
2023-11-04,22:30:00,5.045
2023-11-04,22:40:00,5.044
2023-11-04,22:50:00,5.047
2023-11-04,23:00:00,5.044
2023-11-04,23:10:00,5.047
2023-11-04,23:20:00,5.045
2023-11-04,23:30:00,5.042
2023-11-04,23:40:00,5.045
2023-11-04,23:50:00,5.047
2023-11-05,00:00:00,5.047
2023-11-05,00:10:00,5.044
2023-11-05,00:20:00,5.047
2023-11-05,00:30:00,5.045
2023-11-05,00:40:00,5.046
2023-11-05,00:50:00,5.042
2023-11-05,01:00:00,5.042
2023-11-05,01:10:00,5.041
2023-11-05,01:20:00,5.044
2023-11-05,01:30:00,5.044
2023-11-05,01:40:00,5.041
2023-11-05,01:50:00,5.045
2023-11-05,02:00:00,5.044
2023-11-05,02:10:00,5.044
2023-11-05,02:20:00,5.04
2023-11-05,02:30:00,5.04
2023-11-05,02:40:00,5.04
2023-11-05,02:50:00,5.04
2023-11-05,03:00:00,5.041
2023-11-05,03:10:00,5.038
2023-11-05,03:20:00,5.04
2023-11-05,03:30:00,5.039
2023-11-05,03:40:00,5.039
2023-11-05,03:50:00,5.041
2023-11-05,04:00:00,5.038
2023-11-05,04:10:00,5.035
2023-11-05,04:20:00,5.038
2023-11-05,04:30:00,5.035
2023-11-05,04:40:00,5.035
2023-11-05,04:50:00,5.033
2023-11-05,05:00:00,5.033
2023-11-05,05:10:00,5.033
2023-11-05,05:20:00,5.03
2023-11-05,05:30:00,5.03
2023-11-05,05:40:00,5.03
2023-11-05,05:50:00,5.03
2023-11-05,06:00:00,5.026
2023-11-05,06:10:00,5.026
2023-11-05,06:20:00,5.026
2023-11-05,06:30:00,5.026
2023-11-05,06:40:00,5.025
2023-11-05,06:50:00,5.025
2023-11-05,07:00:00,5.024
2023-11-05,07:10:00,5.02
2023-11-05,07:20:00,5.017
2023-11-05,07:30:00,5.017
2023-11-05,07:40:00,5.015
2023-11-05,07:50:00,5.014
2023-11-05,08:00:00,5.011
2023-11-05,08:10:00,5.013
2023-11-05,08:20:00,5.012
2023-11-05,08:30:00,5.011
2023-11-05,08:40:00,5.005
2023-11-05,08:50:00,5.004
2023-11-05,09:00:00,5.006
2023-11-05,09:10:00,5.005
2023-11-05,09:20:00,5.003
2023-11-05,09:30:00,5.001
2023-11-05,09:40:00,4.993
2023-11-05,09:50:00,4.994
2023-11-05,10:00:00,4.996
2023-11-05,10:10:00,4.993
2023-11-05,10:20:00,4.993
2023-11-05,10:30:00,4.989
2023-11-05,10:40:00,4.984
2023-11-05,10:50:00,4.986
2023-11-05,11:00:00,4.986
2023-11-05,11:10:00,4.983
2023-11-05,11:20:00,4.979
2023-11-05,11:30:00,4.976
2023-11-05,11:40:00,4.98
2023-11-05,11:50:00,4.971
2023-11-05,12:00:00,4.972
2023-11-05,12:10:00,4.973
2023-11-05,12:20:00,4.967
2023-11-05,12:30:00,4.965
2023-11-05,12:40:00,4.965
2023-11-05,12:50:00,4.971
2023-11-05,13:00:00,4.962
2023-11-05,13:10:00,4.963
2023-11-05,13:20:00,4.962
2023-11-05,13:30:00,4.957
2023-11-05,13:40:00,4.96
2023-11-05,13:50:00,4.953
2023-11-05,14:00:00,4.958
2023-11-05,14:10:00,4.958
2023-11-05,14:20:00,4.953
2023-11-05,14:30:00,4.955
2023-11-05,14:40:00,4.955
2023-11-05,14:50:00,4.953
2023-11-05,15:00:00,4.949
2023-11-05,15:10:00,4.953
2023-11-05,15:20:00,4.95
2023-11-05,15:30:00,4.944
2023-11-05,15:40:00,4.945
2023-11-05,15:50:00,4.946
2023-11-05,16:00:00,4.945
2023-11-05,16:10:00,4.943
2023-11-05,16:20:00,4.946
2023-11-05,16:30:00,4.943
2023-11-05,16:40:00,4.94
2023-11-05,16:50:00,4.939
2023-11-05,17:00:00,4.942
2023-11-05,17:10:00,4.944
2023-11-05,17:20:00,4.94
2023-11-05,17:30:00,4.942
2023-11-05,17:40:00,4.942
2023-11-05,17:50:00,4.94
2023-11-05,18:00:00,4.938
2023-11-05,18:10:00,4.937
2023-11-05,18:20:00,4.936
2023-11-05,18:30:00,4.935
2023-11-05,18:40:00,4.933
2023-11-05,18:50:00,4.93
2023-11-05,19:00:00,4.933
2023-11-05,19:10:00,4.937
2023-11-05,19:20:00,4.93
2023-11-05,19:30:00,4.93
2023-11-05,19:40:00,4.933
2023-11-05,19:50:00,4.93
2023-11-05,20:00:00,4.926
2023-11-05,20:10:00,4.931
2023-11-05,20:20:00,4.928
2023-11-05,20:30:00,4.929
2023-11-05,20:40:00,4.929
2023-11-05,20:50:00,4.925
2023-11-05,21:00:00,4.925
2023-11-05,21:10:00,4.924
2023-11-05,21:20:00,4.925
2023-11-05,21:30:00,4.922
2023-11-05,21:40:00,4.922
2023-11-05,21:50:00,4.921
2023-11-05,22:00:00,4.918
2023-11-05,22:10:00,4.921
2023-11-05,22:20:00,4.918
2023-11-05,22:30:00,4.914
2023-11-05,22:40:00,4.917
2023-11-05,22:50:00,4.915
2023-11-05,23:00:00,4.917
2023-11-05,23:10:00,4.916
2023-11-05,23:20:00,4.915
2023-11-05,23:30:00,4.915
2023-11-05,23:40:00,4.911
2023-11-05,23:50:00,4.911
2023-11-06,00:00:00,4.911
2023-11-06,00:10:00,4.908
2023-11-06,00:20:00,4.91
2023-11-06,00:30:00,4.911
2023-11-06,00:40:00,4.909
2023-11-06,00:50:00,4.91
2023-11-06,01:00:00,4.907
2023-11-06,01:10:00,4.905
2023-11-06,01:20:00,4.905
2023-11-06,01:30:00,4.903
2023-11-06,01:40:00,4.904
2023-11-06,01:50:00,4.904
2023-11-06,02:00:00,4.899
2023-11-06,02:10:00,4.902
2023-11-06,02:20:00,4.899
2023-11-06,02:30:00,4.898
2023-11-06,02:40:00,4.897
2023-11-06,02:50:00,4.897
2023-11-06,03:00:00,4.897
2023-11-06,03:10:00,4.895
2023-11-06,03:20:00,4.895
2023-11-06,03:30:00,4.89
2023-11-06,03:40:00,4.891
2023-11-06,03:50:00,4.887
2023-11-06,04:00:00,4.888
2023-11-06,04:10:00,4.888
2023-11-06,04:20:00,4.887
2023-11-06,04:30:00,4.885
2023-11-06,04:40:00,4.882
2023-11-06,04:50:00,4.884
2023-11-06,05:00:00,4.88
2023-11-06,05:10:00,4.88
2023-11-06,05:20:00,4.876
2023-11-06,05:30:00,4.874
2023-11-06,05:40:00,4.876
2023-11-06,05:50:00,4.875
2023-11-06,06:00:00,4.873
2023-11-06,06:10:00,4.87
2023-11-06,06:20:00,4.871
2023-11-06,06:30:00,4.868
2023-11-06,06:40:00,4.869
2023-11-06,06:50:00,4.865
2023-11-06,07:00:00,4.865
2023-11-06,07:10:00,4.865
2023-11-06,07:20:00,4.862
2023-11-06,07:30:00,4.858
2023-11-06,07:40:00,4.856
2023-11-06,07:50:00,4.855
2023-11-06,08:00:00,4.855
2023-11-06,08:10:00,4.853
2023-11-06,08:20:00,4.849
2023-11-06,08:30:00,4.846
2023-11-06,08:40:00,4.844
2023-11-06,08:50:00,4.843
2023-11-06,09:00:00,4.842
2023-11-06,09:10:00,4.84
2023-11-06,09:20:00,4.836
2023-11-06,09:30:00,4.836
2023-11-06,09:40:00,4.834
2023-11-06,09:50:00,4.833
2023-11-06,10:00:00,4.829
2023-11-06,10:10:00,4.824
2023-11-06,10:20:00,4.827
2023-11-06,10:30:00,4.824
2023-11-06,10:40:00,4.822
2023-11-06,10:50:00,4.82
2023-11-06,11:00:00,4.816
2023-11-06,11:10:00,4.814
2023-11-06,11:20:00,4.813
2023-11-06,11:30:00,4.809
2023-11-06,11:40:00,4.809
2023-11-06,11:50:00,4.803
2023-11-06,12:00:00,4.806
2023-11-06,12:10:00,4.8
2023-11-06,12:20:00,4.801
2023-11-06,12:30:00,4.798
2023-11-06,12:40:00,4.799
2023-11-06,12:50:00,4.793
2023-11-06,13:00:00,4.792
2023-11-06,13:10:00,4.792
2023-11-06,13:20:00,4.787
2023-11-06,13:30:00,4.787
2023-11-06,13:40:00,4.785
2023-11-06,13:50:00,4.782
2023-11-06,14:00:00,4.78
2023-11-06,14:10:00,4.778
2023-11-06,14:20:00,4.774
2023-11-06,14:30:00,4.772
2023-11-06,14:40:00,4.771
2023-11-06,14:50:00,4.773
2023-11-06,15:00:00,4.767
2023-11-06,15:10:00,4.766
2023-11-06,15:20:00,4.766
2023-11-06,15:30:00,4.761
2023-11-06,15:40:00,4.76
2023-11-06,15:50:00,4.759
2023-11-06,16:00:00,4.757
2023-11-06,16:10:00,4.755
2023-11-06,16:20:00,4.755
2023-11-06,16:30:00,4.758
2023-11-06,16:40:00,4.757
2023-11-06,16:50:00,4.752
2023-11-06,17:00:00,4.748
2023-11-06,17:10:00,4.749
2023-11-06,17:20:00,4.744
2023-11-06,17:30:00,4.745
2023-11-06,17:40:00,4.742
2023-11-06,17:50:00,4.747
2023-11-06,18:00:00,4.744
2023-11-06,18:10:00,4.741
2023-11-06,18:20:00,4.744
2023-11-06,18:30:00,4.745
2023-11-06,18:40:00,4.74
2023-11-06,18:50:00,4.739
2023-11-06,19:00:00,4.739
2023-11-06,19:10:00,4.739
2023-11-06,19:20:00,4.739
2023-11-06,19:30:00,4.735
2023-11-06,19:40:00,4.735
2023-11-06,19:50:00,4.738
2023-11-06,20:00:00,4.733
2023-11-06,20:10:00,4.734
2023-11-06,20:20:00,4.732
2023-11-06,20:30:00,4.733
2023-11-06,20:40:00,4.731
2023-11-06,20:50:00,4.733
2023-11-06,21:00:00,4.725
2023-11-06,21:10:00,4.727
2023-11-06,21:20:00,4.723
2023-11-06,21:30:00,4.724
2023-11-06,21:40:00,4.721
2023-11-06,21:50:00,4.721
2023-11-06,22:00:00,4.718
2023-11-06,22:10:00,4.714
2023-11-06,22:20:00,4.715
2023-11-06,22:30:00,4.714
2023-11-06,22:40:00,4.713
2023-11-06,22:50:00,4.715
2023-11-06,23:00:00,4.719
2023-11-06,23:10:00,4.719
2023-11-06,23:20:00,4.723
2023-11-06,23:30:00,4.718
2023-11-06,23:40:00,4.718
2023-11-06,23:50:00,4.712
2023-11-07,00:00:00,4.712
2023-11-07,00:10:00,4.714
2023-11-07,00:20:00,4.711
2023-11-07,00:30:00,4.708
2023-11-07,00:40:00,4.706
2023-11-07,00:50:00,4.7
2023-11-07,01:00:00,4.7
2023-11-07,01:10:00,4.701
2023-11-07,01:20:00,4.7
2023-11-07,01:30:00,4.7
2023-11-07,01:40:00,4.699
2023-11-07,01:50:00,4.692
2023-11-07,02:00:00,4.691
2023-11-07,02:10:00,4.693
2023-11-07,02:20:00,4.689
2023-11-07,02:30:00,4.684
2023-11-07,02:40:00,4.689
2023-11-07,02:50:00,4.687
2023-11-07,03:00:00,4.687
2023-11-07,03:10:00,4.686
2023-11-07,03:20:00,4.684
2023-11-07,03:30:00,4.685
2023-11-07,03:40:00,4.683
2023-11-07,03:50:00,4.679
2023-11-07,04:00:00,4.677
2023-11-07,04:10:00,4.677
2023-11-07,04:20:00,4.673
2023-11-07,04:30:00,4.671
2023-11-07,04:40:00,4.671
2023-11-07,04:50:00,4.671
2023-11-07,05:00:00,4.662
2023-11-07,05:10:00,4.667
2023-11-07,05:20:00,4.658
2023-11-07,05:30:00,4.658
2023-11-07,05:40:00,4.658
2023-11-07,05:50:00,4.655
2023-11-07,06:00:00,4.653
2023-11-07,06:10:00,4.655
2023-11-07,06:20:00,4.651
2023-11-07,06:30:00,4.656
2023-11-07,06:40:00,4.65
2023-11-07,06:50:00,4.649
2023-11-07,07:00:00,4.648
2023-11-07,07:10:00,4.643
2023-11-07,07:20:00,4.64
2023-11-07,07:30:00,4.639
2023-11-07,07:40:00,4.635
2023-11-07,07:50:00,4.633
2023-11-07,08:00:00,4.631
2023-11-07,08:10:00,4.63
2023-11-07,08:20:00,4.624
2023-11-07,08:30:00,4.622
2023-11-07,08:40:00,4.619
2023-11-07,08:50:00,4.617
2023-11-07,09:00:00,4.614
2023-11-07,09:10:00,4.616
2023-11-07,09:20:00,4.611
2023-11-07,09:30:00,4.608
2023-11-07,09:40:00,4.608
2023-11-07,09:50:00,4.603
2023-11-07,10:00:00,4.603
2023-11-07,10:10:00,4.599
2023-11-07,10:20:00,4.596